TimeCST,TemperatureF,Dew PointF,Humidity,Sea Level PressureIn,VisibilityMPH,Wind Direction,Wind SpeedMPH,Gust SpeedMPH,PrecipitationIn,Events,Conditions,WindDirDegrees,DateUTC
12:54 AM,45.0,33.1,63,30.26,10.0,South,4.6,-,N/A,,Overcast,180,2012-11-19 06:54:00
1:54 AM,46.0,33.1,61,30.24,10.0,South,4.6,-,N/A,,Overcast,170,2012-11-19 07:54:00
2:54 AM,45.0,32.0,60,30.23,10.0,South,5.8,-,N/A,,Mostly Cloudy,170,2012-11-19 08:54:00
3:54 AM,44.1,32.0,63,30.22,10.0,SSE,3.5,-,N/A,,Mostly Cloudy,160,2012-11-19 09:54:00
4:54 AM,43.0,32.0,65,30.22,10.0,SE,4.6,-,N/A,,Partly Cloudy,140,2012-11-19 10:54:00
5:54 AM,43.0,33.1,68,30.21,9.0,SSE,3.5,-,N/A,,Mostly Cloudy,160,2012-11-19 11:54:00
6:54 AM,42.1,33.1,70,30.21,9.0,Calm,Calm,-,N/A,,Partly Cloudy,0,2012-11-19 12:54:00
7:54 AM,42.1,33.1,70,30.21,8.0,SSE,3.5,-,N/A,,Clear,150,2012-11-19 13:54:00
8:54 AM,44.1,33.1,65,30.21,8.0,Variable,4.6,-,N/A,,Mostly Cloudy,0,2012-11-19 14:54:00
9:54 AM,46.9,34.0,61,30.21,10.0,South,6.9,-,N/A,,Overcast,170,2012-11-19 15:54:00
10:54 AM,48.9,34.0,56,30.19,10.0,South,3.5,-,N/A,,Overcast,190,2012-11-19 16:54:00
11:54 AM,46.9,37.0,68,30.16,10.0,ESE,4.6,-,0.00,Rain,Light Rain,110,2012-11-19 17:54:00
12:54 PM,46.9,39.0,74,30.15,9.0,SE,3.5,-,N/A,,Overcast,140,2012-11-19 18:54:00
1:54 PM,48.0,39.9,74,30.13,10.0,Variable,3.5,-,N/A,,Overcast,0,2012-11-19 19:54:00
2:54 PM,48.9,37.9,66,30.12,10.0,SE,3.5,-,N/A,,Overcast,140,2012-11-19 20:54:00
3:54 PM,48.0,36.0,63,30.12,10.0,SE,4.6,-,N/A,,Overcast,130,2012-11-19 21:54:00
4:54 PM,46.9,36.0,66,30.11,10.0,SE,4.6,-,N/A,,Overcast,130,2012-11-19 22:54:00
5:54 PM,46.9,36.0,66,30.12,10.0,SSE,3.5,-,N/A,,Overcast,160,2012-11-19 23:54:00
6:54 PM,46.9,37.0,68,30.12,10.0,Calm,Calm,-,N/A,,Overcast,0,2012-11-20 00:54:00
7:54 PM,46.0,36.0,68,30.11,9.0,Calm,Calm,-,N/A,,Overcast,0,2012-11-20 01:54:00
8:54 PM,46.0,36.0,68,30.10,10.0,SSE,3.5,-,N/A,,Overcast,150,2012-11-20 02:54:00
9:54 PM,46.0,37.0,71,30.10,10.0,Calm,Calm,-,N/A,,Overcast,0,2012-11-20 03:54:00
10:54 PM,44.1,37.0,76,30.09,9.0,Calm,Calm,-,N/A,,Overcast,0,2012-11-20 04:54:00
11:50 PM,42.8,35.6,76,30.07,8.0,Calm,Calm,-,N/A,,Overcast,0,2012-11-20 05:50:00
11:54 PM,42.1,36.0,79,30.09,8.0,Calm,Calm,-,N/A,,Overcast,0,2012-11-20 05:54:00